FALCON 9 DEB (56365 NORAD) Tracking and Keplerian Element Data

This shows tracking and keplerian element data for the satellite.

Feedback or suggestion? Click here.




ElementValue
Catalog56365
NameFALCON 9 DEB
Epoch Orbit759
Epoch Day162.1232535
Epoch Year2023
RAAN166.9271
Inclination97.6525
Eccentricity0.000759
Argument of Perigee207.2235
Mean Anonmoly152.8672
Mean Motion16.49986693
Decay Rate0.13205038
L11 56365U 23058BA 23162.12325350 .13205038 29070-5 15350-3 0 9990
L22 56365 97.6525 166.9271 0007590 207.2235 152.8672 16.49986693 7598



Live tracking and technical data element details for FALCON 9 DEB (NORAD 56365). FALCON 9 DEB can be tracked NOW for your location showing map with azimuth and elevation plus other details from your city location.







IsCatalogInMostPopularTable: catalog: 56365, numindb: 10
Update: records affected: 1



GetName: 56365 FALCON 9 DEB

Hit Count: updated at: Thu, 28 Sep 2023 04:25:07 GMT